GONETS D1 4

Satellite information

Favourite Embed

Satellite Type and Status

PAYLOADIN ORBIT

Key statistics

Satellite GONETS D1 4 at a glance.

Uptime

10534

Days in orbit

Revolutions

≈ 12.6

Per day

Orbit

LEO

Low Earth Orbit

Inclination

82.6

Latest

Satellite identification and parameters

Extended collection of information and parameters for GONETS D1 4.

Object identification

Identified? True

Debris? False

Object name: GONETS D1 4

International designator: 1997-006D

Object number (NORAD): 24728

Object ID (CCSDS): 24728

Country: COMMONWEALTH OF INDEPENDENT STATES (CIS)

Current information (Y/N): Y

RCS size: MEDIUM

Orbital parameters

Period: 113.931 minutes

Inclination: 82.605 deg

SMA: 7784.954 km

Apoapsis: 1412.15 km

Periapsis: 1401.488 km

RAAN: 352.0284 deg

Eccentricy: 0.00068472

Argument of periapsis: 227.1399 deg

Mean anomaly: 132.9119 deg

Mean motion: 12.63917382 rev/day

Mean motion (dot): 0.00000022 rev/day2

B* drag term: 0.000061305234 1/REarth

Two-line elements (TLE)

Creation date: Dec. 18, 2025, 2:19 a.m.

Reference frame: TEME

Reference center: EARTH

Epoch: Dec. 17, 2025, 5:15 p.m. UTC

TLE line 0: 0 GONETS D1 4

TLE line 1: 1 24728U 97006D 25351.71914763 .00000022 00000-0 61305-4 0 9992

TLE line 2: 2 24728 82.6050 352.0284 0006847 227.1399 132.9119 12.63917382330282

Live tracking on map

Real-time ground track for satellite GONETS D1 4.

In-orbit conjunctions

There are no conjunctions computed for GONETS D1 4, at the moment. Check back to stay up to date, as we update our databases every day.

Go to all conjunctions

Associated space launch

Gonets- satellite were the civilian derivate of the military Strela-3 satellite system. The Gonets system was offered to support international health organizations to meet their global communications needs for the transfer of medical data and records to remote sites. Strela-3 was second generation of strategic store-dump military communications satellite. Development of this generation to replace the first generation Strela-1M and Strela-2M satellites began in 1973.

GONETS D1 4 was lifted into orbit during the mission ‘Tsiklon-3 | Strela-3 116 to 118 & Gonets 4 to 6’, on board a Tsiklon-3 space rocket.

The launch took place on Feb. 14, 1997, 3:47 a.m. from 32/1.

For more information about the launch, click the button.

Launch to space Tsiklon-3 | Strela-3 116 to 118 & Gonets 4 to 6
Tsiklon-3 | Strela-3 116 to 118 & Gonets 4 to 6

Agency: N/A

Status: Launch Successful

Launch date: Feb. 14, 1997, 3:47 a.m. UTC

Rocket: Tsiklon-3

Launch pad: 32/1

Location: Plesetsk Cosmodrome, Russian Federation

...

Latest news about this satellite

There are no fresh news available about this satellite. Check back as we update our databases every day.


Newsletter sign-up

Weekly statistics, charts and insights to help you stay on top of the space industry.